Погода в Воронеже

Погода в Воронеже : погода сейчас, прогноз погоды и архив. Всё, что Вы хотите узнать о погоде в Воронеже!

Хотите узнать прогноз погоды в Воронеже? Тогда Вам сюда: Погода в Воронеже

Поиск расширенной информации на нашем сайте:

Другие новости

Новости СМИ2

Главная страница сайта

Новости сайта

03.07.2017

Напоминаем, что на нашем специализированном сайте Метеоцентр.Азия вы можете получить высокодетализированные автоматические прогнозы погоды по пунктам России, СНГ и мира в авиационном формате (включающие направление и скорость ветра, видимость, явления погоды, количество и форму облачности, нижнюю и верхнюю границу облачности).


Погода в Воронеже - сегодня

Время (UTC), дата Ветер
(°,м/с) 
Видим.   Явления Облачность Т
(°С)
Тd
(°С)
f(%) Тe
(°С)
Pmin
(гПа)
dP
(гПа)
Po
(мм)
O2
(г/м3)
Тmin Tmax R s Состояние
почвы
18 15.02.18 130 (ЮВ) 10 км  {ливн. осадки}  10/10 300 м 
[St]
-6 -8.3 84 -9  1034.8  0.5  761  315           
21 15.02.18 140 (ЮВ) 10 км  слаб. снег  10/10 300 м 
[Frnb|Ns]
-5.6 -8.2 82 -8  1034.5  -0.3  761  314           
03 16.02.18 110 (В) 10 км  {снег}  8/0 средняя, верхняя 
[Ac trans|Ci fib]
-5.1 -8 80 -7  1034.4  761  313  -6.1    0.2  32  равномерный
сухой снег
100% 
06 16.02.18 120 (ЮВ) 10 км  {снег}  10/0 средняя 
[Ac trans]
-5.3 -8.6 78 -9  1034.8  0.4  762  314           
09 16.02.18 120 (ЮВ) 10 км    10/6 600 м средняя 
[Sc|Ac trans]
-4.1 -8.7 70 -8  1034.6  -0.2  761  312           
18 16.02.18 120 (ЮВ) 10 км  слаб. снег  10/10 600 м 
[Frnb|Ns]
-4.2 -8 75 -7  1032.1  -0.4  760  312           
21 16.02.18 130 (ЮВ) 4000 м  слаб. снег  10/10 300 м 
[Frnb|Ns]
-4.7 -6.7 86 -8  1013.1  -0.7  759  312           
03 17.02.18 120 (ЮВ) 4000 м  слаб. снег  10/10 300 м 
[Frnb|Ns]
-5.2 -6.2 93 -8  1029.3  -1.4  758  312  -5.2    0.5  32  равномерный
сухой снег
100% 
09 17.02.18 140 (ЮВ) 10 км  слаб. снег  10/10 300 м 
[Frnb|Ns]
-5.2 -8.1 80 -8  1027.9  -1.3  757  312           
18 17.02.18 120 (ЮВ) 4000 м  слаб. снег  10/10 300 м 
[Frnb|Ns]
-4.2 -5.4 91 -5  1024.4  -0.4  754  309           
21 17.02.18 140 (ЮВ) 10 км  слаб. снег  10/10 200 м 
[Frnb|Ns]
-3.4 -4.5 92 -6  1023.2  -1.2  753  308           
03 18.02.18 140 (ЮВ) 4000 м  слаб. снег  10/10 200 м 
[Frnb|Ns]
-4.7 -6.3 89 -6  1021.9  -0.9  752  309  -4.7    0.5  33  равномерный
сухой снег
100% 
06 18.02.18 160 (Ю) 4000 м  слаб. снег  10/10 300 м 
[Frnb|Ns]
-4.7 -6.3 89 -6  1021.9  752  309           
09 18.02.18 140 (ЮВ) 10 км  {снег}  10/10 300 м 
[Sc]
-2.6 -5.2 82 -4  1021.2  -0.5  752  306           
18 18.02.18 180 (Ю) 10 км    10/8 600 м средняя 
[Sc|Ac trans]
-2 -3.8 87 -1  1020.9  0.1  752  306           
21 18.02.18 210 (ЮЗ) 4000 м  дымка  10/0 средняя 
[Ac trans]
-3.6 -4.4 94 -3  1020.9  -0.2  751  307           
03 19.02.18 210 (ЮЗ) 4000 м  дымка  10/10 300 м 
[Sc]
-2.1 -3.9 87 -2  1019.3  -0.6  750  305  -4.3    0.4  30  равномерный
сухой снег
100% 
06 19.02.18 240 (ЮЗ) 4000 м  дымка{ливн. осадки}  10/10 300 м 
[Sc diur, vesp]
-1.7 -3.1 90 -3  1019.5  0.1  750  305           
09 19.02.18 250 (З) 10 км    10/8 300 м кучево-дожд., средняя 
[Cb calv|Ac cuf]
-1.1 -4.3 79 -2  1019.6  0.2  751  304           
12 19.02.18 260 (З) 10 км    10/8 300 м кучево-дожд., средняя 
[Cb calv|Ac cuf]
-0.9 -3.4 83 -3  1019.4  -0.2  750  304           
18 19.02.18 270 (З) 10 км  слаб. ливневой снег  10/10 600 м кучево-дожд. 
[Cb calv]
-2.2 -5.8 76 -3  1020.2  751  306           
21 19.02.18 220 (ЮЗ) 10 км  {ливн. осадки}  10/8 600 м средняя 
[Sc diur, vesp|Ac cuf]
-2.6 -7.4 70 -2  1019.8  -0.4  751  306           
03 20.02.18 280 (З) 10 км  {ливн. осадки}  8/0 средняя 
[Ac trans]
-6.9 -9 85 -10  1020.2  0.2  751  311  -7.4    0.2  29  равномерный
сухой снег
100% 
06 20.02.18 280 (З) 4000 м  слаб. ливневой снег  10/8 300 м кучево-дожд., средняя 
[Cb calv|Ac trans]
-7 -9.5 82 -11  1021  0.7  751  312           
09 20.02.18 270 (З) 10 км  в посл. час ливневой снег  8/8 300 м кучево-дожд., средняя 
[Cb calv|Ac trans]
-6.4 -10 76 -10  1021.4  0.6  752  311           
Время (UTC), дата Ветер
(°,м/с) 
Видим.   Явления Облачность Т
(°С)
Тd
(°С)
f(%) Тe
(°С)
Pmin
(гПа)
dP
(гПа)
Po
(мм)
O2
(г/м3)
Тmin Tmax R s Состояние
почвы

Для получения пояснительной информации подведите курсор к названию столбца.

ПОГОДА в Воронеже - архив

Всё, что Вы хотите узнать о погоде в Воронеже - удобно и подробно!

Выберите нужную дату (начиная с 1 января 2015* года) и нажмите кнопку "Найти".
Будут отображены архивные сводки погоды по пункту Воронеж, начиная с указанной даты.


Отображать данные в формате CSV (для использования в таблицах Excel)


Внимание! Наш архив погоды предназначен исключительно для личного некоммерческого использования в познавательных целях. Если Вам необходимы официальные справки о состоянии погоды (для производственных, юридических, коммерческих и т.п. целей), обращайтесь в органы Росгидромета.

*Примечание: данная дата относится к архиву по метеостанциям СССР (Россия, СНГ, Балтия).
Архив по метеостанциям Зарубежной Европы и Азии (кроме Китая) хранится 10 дней, по другим регионам земного шара (Китай, Африка, Америка, Австралия, Океания) - 1 день.

Воронеж - район местоположения метеостанции


Название, широта, долгота, высота метеостанции:
Воронеж (город) 51.6°ш. 39.2°д. 104 м над ур. моря [Российская Федерация]

Дополнительная информация

В oтличие oт бoльшинства пoгoдных сайтoв мы публикуем пoдрoбную метеoинфoрмацию в детальнoм прoфессиoнальнoм фoрмате.

Характеристики температуры и влажнoсти вoздуха измеряются на высoте 2 м в тени вдали oт зданий и деревьев.
Скoрoсть ветра измеряется на высoте 10 м (на урoвне рoста челoвека скoрoсть ветра ниже в 1.5-2 раза). Если метеoстанция нахoдится в гoрoде или в лесу, тo скoрoсть ветра занижена на 2-4 м/с пo сравнению с oткрытым местoм. Скoрoсть ветра над акватoриями крупных рек и oзёр, а также на вершинах хoлмoв на 2-5 м/с выше, чем в oбычных услoвиях.
Атмoсфернoе давление в разных тoчках местнoсти мoжет значительнo oтличаться oт давления на метеoстанции, в зависимoсти oт услoвий рельефа (при пoдъёме на 10 м давление пoнижается примернo на 1 мм рт.ст.).